Time,TemperatureF,DewpointF,PressureIn,WindDirection,WindDirectionDegrees,WindSpeedMPH,WindSpeedGustMPH,Humidity,HourlyPrecipIn,Conditions,Clouds,dailyrainin,SoftwareType,DateUTC
2013-01-13 00:00:00,11.8,3.6,29.79,SSW,202,0.0,7.4,69,0.00,,SKC,0.00,VWS V14.01,2013-01-13 06:00:00,
2013-01-13 00:20:00,11.8,3.6,29.82,SSW,202,1.8,5.1,69,0.00,,SKC,0.00,VWS V14.01,2013-01-13 06:20:00,
2013-01-13 00:40:00,11.8,3.6,29.79,SSW,202,0.0,4.7,69,0.00,,SKC,0.00,VWS V14.01,2013-01-13 06:40:00,
2013-01-13 01:00:00,11.8,3.6,29.79,WNW,292,1.3,5.5,69,0.00,,SKC,0.00,VWS V14.01,2013-01-13 07:00:00,
2013-01-13 01:20:00,11.7,3.5,29.82,West,270,2.3,6.7,69,0.00,,SKC,0.00,VWS V14.01,2013-01-13 07:20:00,
2013-01-13 01:40:00,11.8,3.6,29.82,WSW,248,0.0,4.7,69,0.00,,SKC,0.00,VWS V14.01,2013-01-13 07:40:00,
2013-01-13 02:00:00,11.3,3.1,29.82,SW,225,2.6,5.5,69,0.00,,SKC,0.00,VWS V14.01,2013-01-13 08:00:00,
2013-01-13 02:20:00,10.8,2.6,29.82,WNW,292,3.1,6.7,69,0.00,,SKC,0.00,VWS V14.01,2013-01-13 08:20:00,
2013-01-13 02:40:00,10.4,2.3,29.82,West,270,1.8,5.5,69,0.00,,SKC,0.00,VWS V14.01,2013-01-13 08:40:00,
2013-01-13 03:00:00,9.5,1.4,29.82,WNW,292,1.8,6.3,69,0.00,,SKC,0.00,VWS V14.01,2013-01-13 09:00:00,
2013-01-13 03:20:00,9.3,1.2,29.82,SSW,202,0.0,6.7,69,0.00,,SKC,0.00,VWS V14.01,2013-01-13 09:20:00,
2013-01-13 03:40:00,9.1,1.0,29.82,WNW,292,1.5,5.5,69,0.00,,SKC,0.00,VWS V14.01,2013-01-13 09:40:00,
2013-01-13 04:00:00,8.1,0.0,29.82,WNW,292,1.0,8.6,69,0.00,,SKC,0.00,VWS V14.01,2013-01-13 10:00:00,
2013-01-13 04:20:00,7.5,-0.5,29.82,SSW,202,0.0,5.5,69,0.00,,SKC,0.00,VWS V14.01,2013-01-13 10:20:00,
2013-01-13 04:40:00,7.0,-1.0,29.82,ESE,112,0.0,3.5,69,0.00,,SKC,0.00,VWS V14.01,2013-01-13 10:40:00,
2013-01-13 05:00:00,6.4,-1.5,29.79,NW,315,0.0,2.7,69,0.00,,SKC,0.00,VWS V14.01,2013-01-13 11:00:00,
2013-01-13 05:20:00,6.3,-1.7,29.79,WSW,248,0.0,2.7,69,0.00,,SKC,0.00,VWS V14.01,2013-01-13 11:20:00,
2013-01-13 05:40:00,5.9,-2.1,29.79,SSW,202,1.3,3.5,69,0.00,,SKC,0.00,VWS V14.01,2013-01-13 11:40:00,
2013-01-13 06:00:00,5.5,-2.4,29.82,SSW,202,0.0,3.5,69,0.00,,SKC,0.00,VWS V14.01,2013-01-13 12:00:00,
2013-01-13 06:20:00,5.4,-2.6,29.82,SSW,202,0.0,3.5,69,0.00,,SKC,0.00,VWS V14.01,2013-01-13 12:20:00,
2013-01-13 06:40:00,5.0,-2.9,29.82,SSW,202,0.0,2.7,69,0.00,,SKC,0.00,VWS V14.01,2013-01-13 12:40:00,
2013-01-13 07:00:00,5.0,-2.9,29.85,SSW,202,0.0,3.5,69,0.00,,SKC,0.00,VWS V14.01,2013-01-13 13:00:00,
2013-01-13 07:20:00,4.3,-3.6,29.85,SSW,202,0.0,2.3,69,0.00,,SKC,0.00,VWS V14.01,2013-01-13 13:20:00,
2013-01-13 07:40:00,4.3,-3.6,29.85,SW,225,0.0,2.3,69,0.00,,SKC,0.00,VWS V14.01,2013-01-13 13:40:00,
2013-01-13 08:00:00,4.3,-3.6,29.88,SSW,202,0.0,0.0,69,0.00,,SKC,0.00,VWS V14.01,2013-01-13 14:00:00,
2013-01-13 09:40:00,6.4,-1.5,29.88,SSW,202,0.0,7.4,69,0.00,,SKC,0.00,VWS V14.01,2013-01-13 15:40:00,
2013-01-13 10:00:00,6.8,-1.2,29.91,NNW,338,3.3,5.5,69,0.00,,SKC,0.00,VWS V14.01,2013-01-13 16:00:00,
2013-01-13 10:20:00,7.3,-0.7,29.88,SW,225,2.3,6.3,69,0.00,,SKC,0.00,VWS V14.01,2013-01-13 16:20:00,
2013-01-13 10:40:00,8.1,0.0,29.88,WNW,292,3.1,6.7,69,0.00,,SKC,0.00,VWS V14.01,2013-01-13 16:40:00,
2013-01-13 11:00:00,8.1,0.0,29.88,South,180,1.8,10.2,69,0.00,,SKC,0.00,VWS V14.01,2013-01-13 17:00:00,
2013-01-13 11:20:00,8.6,0.5,29.85,South,180,2.8,6.7,69,0.00,,SKC,0.00,VWS V14.01,2013-01-13 17:20:00,
2013-01-13 11:40:00,8.8,0.7,29.85,NNW,338,2.6,6.7,69,0.00,,SKC,0.00,VWS V14.01,2013-01-13 17:40:00,
2013-01-13 12:20:00,10.0,1.9,29.82,WNW,292,3.9,6.7,69,0.00,,SKC,0.00,VWS V14.01,2013-01-13 18:20:00,
2013-01-13 12:40:00,9.5,1.4,29.82,SW,225,2.8,8.2,69,0.00,,SKC,0.00,VWS V14.01,2013-01-13 18:40:00,
2013-01-13 13:00:00,9.5,1.4,29.82,NNW,338,4.4,6.7,69,0.00,,SKC,0.00,VWS V14.01,2013-01-13 19:00:00,
2013-01-13 13:20:00,9.3,1.2,29.82,WNW,292,3.1,7.0,69,0.00,,SKC,0.00,VWS V14.01,2013-01-13 19:20:00,
2013-01-13 13:40:00,10.0,1.9,29.82,WSW,248,2.3,9.8,69,0.00,,SKC,0.00,VWS V14.01,2013-01-13 19:40:00,
2013-01-13 14:00:00,10.2,2.1,29.82,SW,225,1.5,8.6,69,0.00,,SKC,0.00,VWS V14.01,2013-01-13 20:00:00,
2013-01-13 14:20:00,9.7,1.6,29.85,WNW,292,2.8,6.7,69,0.00,,SKC,0.00,VWS V14.01,2013-01-13 20:20:00,
2013-01-13 14:40:00,9.7,1.6,29.85,SSW,202,2.6,7.4,69,0.00,,SKC,0.00,VWS V14.01,2013-01-13 20:40:00,
2013-01-13 15:00:00,9.3,1.2,29.85,WSW,248,1.5,7.0,69,0.00,,SKC,0.00,VWS V14.01,2013-01-13 21:00:00,
2013-01-13 15:20:00,9.5,1.4,29.85,SSW,202,2.6,6.7,69,0.00,,SKC,0.00,VWS V14.01,2013-01-13 21:20:00,
2013-01-13 15:40:00,9.1,1.0,29.85,SSW,202,1.3,6.3,69,0.00,,SKC,0.00,VWS V14.01,2013-01-13 21:40:00,
2013-01-13 16:00:00,9.1,1.0,29.85,SW,225,1.5,5.1,69,0.00,,SKC,0.00,VWS V14.01,2013-01-13 22:00:00,
2013-01-13 16:20:00,8.6,0.5,29.85,WNW,292,3.1,6.7,69,0.00,,SKC,0.00,VWS V14.01,2013-01-13 22:20:00,
2013-01-13 16:40:00,8.1,0.0,29.85,SSW,202,0.0,7.4,69,0.00,,SKC,0.00,VWS V14.01,2013-01-13 22:40:00,
2013-01-13 17:00:00,7.5,-0.5,29.88,SW,225,2.6,7.0,69,0.00,,SKC,0.00,VWS V14.01,2013-01-13 23:00:00,
2013-01-13 17:20:00,7.0,-1.0,29.88,SSW,202,1.3,5.1,69,0.00,,SKC,0.00,VWS V14.01,2013-01-13 23:20:00,
2013-01-13 17:40:00,6.8,-1.2,29.88,SW,225,0.0,4.3,69,0.00,,SKC,0.00,VWS V14.01,2013-01-13 23:40:00,
2013-01-13 18:00:00,6.6,-1.4,29.91,SSW,202,1.5,4.7,69,0.00,,SKC,0.00,VWS V14.01,2013-01-14 00:00:00,
2013-01-13 18:20:00,6.8,-1.2,29.88,SSW,202,1.5,4.7,69,0.00,,SKC,0.00,VWS V14.01,2013-01-14 00:20:00,
2013-01-13 18:40:00,7.0,-1.0,29.88,SW,225,2.3,5.9,69,0.00,,SKC,0.00,VWS V14.01,2013-01-14 00:40:00,
2013-01-13 19:00:00,7.0,-1.0,29.88,SSW,202,1.5,6.3,69,0.00,,SKC,0.00,VWS V14.01,2013-01-14 01:00:00,
2013-01-13 19:20:00,7.2,-0.9,29.88,SW,225,2.3,6.7,69,0.00,,SKC,0.00,VWS V14.01,2013-01-14 01:20:00,
2013-01-13 19:40:00,7.3,-0.7,29.88,SSW,202,2.3,6.7,69,0.00,,SKC,0.00,VWS V14.01,2013-01-14 01:40:00,
2013-01-13 20:00:00,7.2,-0.9,29.91,SSW,202,1.5,6.3,69,0.00,,SKC,0.00,VWS V14.01,2013-01-14 02:00:00,
2013-01-13 20:20:00,7.0,-1.0,29.91,SSW,202,2.8,8.2,69,0.00,,SKC,0.00,VWS V14.01,2013-01-14 02:20:00,
2013-01-13 20:40:00,6.6,-1.4,29.91,SSW,202,2.8,7.4,69,0.00,,SKC,0.00,VWS V14.01,2013-01-14 02:40:00,
2013-01-13 21:00:00,6.3,-1.7,29.91,SSW,202,2.3,5.9,69,0.00,,SKC,0.00,VWS V14.01,2013-01-14 03:00:00,
2013-01-13 21:20:00,5.9,-2.1,29.94,SSW,202,0.0,7.4,69,0.00,,SKC,0.00,VWS V14.01,2013-01-14 03:20:00,
2013-01-13 21:40:00,5.4,-2.6,29.94,SSW,202,1.3,4.7,69,0.00,,SKC,0.00,VWS V14.01,2013-01-14 03:40:00,
2013-01-13 22:00:00,5.2,-2.8,29.94,SSW,202,1.3,5.9,69,0.00,,SKC,0.00,VWS V14.01,2013-01-14 04:00:00,
2013-01-13 22:20:00,4.6,-3.3,29.94,SSW,202,1.3,4.3,69,0.00,,SKC,0.00,VWS V14.01,2013-01-14 04:20:00,
2013-01-13 22:40:00,4.3,-3.6,29.94,SSW,202,0.0,6.3,69,0.00,,SKC,0.00,VWS V14.01,2013-01-14 04:40:00,
2013-01-13 23:00:00,4.1,-3.8,29.97,SSW,202,0.0,5.1,69,0.00,,SKC,0.00,VWS V14.01,2013-01-14 05:00:00,
2013-01-13 23:20:00,4.1,-3.8,29.97,SSW,202,1.0,4.3,69,0.00,,SKC,0.00,VWS V14.01,2013-01-14 05:20:00,
2013-01-13 23:40:00,3.6,-4.3,29.97,SSW,202,1.0,3.5,69,0.00,,SKC,0.00,VWS V14.01,2013-01-14 05:40:00,